AKDT,Max TemperatureF,Mean TemperatureF,Min TemperatureF,Max Dew PointF,MeanDew PointF,Min DewpointF,Max Humidity, Mean Humidity, Min Humidity, Max Sea Level PressureIn, Mean Sea Level PressureIn, Min Sea Level PressureIn, Max VisibilityMiles, Mean VisibilityMiles, Min VisibilityMiles, Max Wind SpeedMPH, Mean Wind SpeedMPH, Max Gust SpeedMPH,PrecipitationIn, CloudCover, Events, WindDirDegrees
2013-8-1,73,60,48,57,53,46,94,76,55,30.14,30.06,29.96,10,10,10,8,3,,0.00,3,,199
2013-8-2,73,64,55,56,53,50,87,69,47,30.01,29.94,29.81,10,10,10,7,3,,0.00,4,,188
2013-8-3,66,60,57,58,56,54,93,86,71,29.92,29.83,29.78,10,10,9,5,1,,0.00,7,Rain,336
2013-8-4,66,60,53,56,54,50,97,82,48,29.98,29.95,29.92,10,10,9,7,1,,0.03,8,,232
2013-8-5,66,60,54,56,53,50,97,81,46,30.00,29.99,29.96,10,10,2,6,1,,0.12,6,,349
2013-8-6,73,62,52,55,52,45,97,73,34,30.00,29.96,29.93,10,10,10,9,2,,0.00,3,,254
2013-8-7,66,60,54,56,54,52,97,80,51,29.92,29.84,29.76,10,10,10,6,1,,0.00,7,,203
2013-8-8,68,61,54,57,53,49,97,81,41,29.85,29.78,29.75,10,10,4,14,2,,0.04,7,,167
2013-8-9,57,54,50,53,50,48,96,89,70,29.86,29.80,29.75,10,9,4,8,2,,0.24,8,Rain,14
2013-8-10,62,56,51,55,52,50,97,90,75,30.04,29.90,29.81,10,10,6,6,1,,0.08,8,Rain,331
2013-8-11,60,55,50,57,53,49,100,93,86,30.05,30.03,30.00,10,9,6,5,1,,0.08,7,,275
2013-8-12,71,62,53,61,56,53,100,89,65,30.06,30.04,30.01,10,9,2,6,1,,0.16,6,,196
2013-8-13,72,62,51,58,55,51,100,85,49,30.01,29.99,29.94,10,8,0,8,2,,0.00,5,Fog,201
2013-8-14,66,59,52,53,51,48,97,73,50,30.02,29.97,29.88,10,10,10,8,3,,0.00,7,,201
2013-8-15,64,58,51,52,49,47,93,74,58,29.89,29.83,29.77,10,10,10,5,2,,0.00,6,,194
2013-8-16,68,56,44,56,50,45,100,84,44,29.78,29.72,29.65,10,10,4,9,1,,0.02,5,Rain,196
2013-8-17,73,63,53,55,52,47,100,76,38,29.68,29.59,29.49,10,10,7,9,2,,0.00,5,Rain,306
2013-8-18,66,60,53,55,53,52,96,81,59,29.65,29.54,29.49,10,10,10,13,4,18,0.00,6,,201
2013-8-19,59,55,51,55,52,50,100,93,74,29.76,29.69,29.65,10,6,2,13,4,17,0.28,8,Rain,186
2013-8-20,57,54,52,54,51,50,100,91,81,29.83,29.80,29.75,10,10,4,13,4,17,0.02,8,,183
2013-8-21,54,52,51,52,51,49,100,94,90,29.84,29.81,29.77,10,5,2,12,7,17,0.59,8,Rain,189
2013-8-22,54,52,50,52,51,50,100,96,93,29.78,29.74,29.68,10,4,2,7,2,,0.31,8,Rain,203
2013-8-23,60,56,50,55,52,49,100,93,81,29.67,29.60,29.54,10,7,1,10,7,,0.04,7,Rain,196
2013-8-24,68,55,42,49,38,32,100,57,17,29.76,29.67,29.60,10,10,10,17,4,29,0.00,1,,17
2013-8-25,68,54,39,47,37,32,93,54,28,29.77,29.73,29.69,10,10,10,8,4,,0.00,0,,8
2013-8-26,69,52,35,41,33,28,97,55,15,29.78,29.76,29.73,10,10,7,4,0,,0.00,1,,227
2013-8-27,66,52,37,52,41,31,93,68,32,29.82,29.77,29.72,10,10,10,9,1,,0.00,6,Rain,206
2013-8-28,62,54,46,50,48,43,94,78,45,29.72,29.69,29.62,10,10,8,7,2,,0.01,8,Rain,198
2013-8-29,57,52,48,53,49,46,97,85,72,29.89,29.73,29.62,10,10,7,7,3,,0.01,8,Rain,358
2013-8-30,61,54,48,52,50,48,100,86,61,29.95,29.92,29.89,10,9,2,9,1,,0.00,6,Rain,188
2013-8-31,53,50,48,50,48,46,96,90,80,29.94,29.89,29.85,10,10,6,7,1,,0.02,8,Rain,130